Location: Hartha
(51.1030°N, 12.9600°E)
Time: 13:45:20
(UTC+02:00)

ISS - Visible Passes

Search period start: 22 October 2019 00:00
Search period end: 31 October 2019 23:00
Orbit: 411 x 421 km, 51.6° (Epoch: 22 October)

Date Brightness Start Highest point End Pass type
(mag) Time Alt. Az. Time Alt. Az. Time Alt. Az.
24 Oct -0.7 06:50:51 10° S 06:52:37 14° SE 06:54:23 10° ESE visible
26 Oct -1.7 06:48:54 10° SSW 06:51:47 27° SSE 06:54:41 10° E visible
27 Oct -1.3 05:00:53 10° S 05:03:20 19° SE 05:05:46 10° E visible
28 Oct -0.9 04:14:38 13° SE 04:14:55 13° SE 04:16:30 10° ESE visible
28 Oct -2.9 05:47:47 10° SW 05:51:04 49° SSE 05:54:20 10° E visible
29 Oct -2.5 05:01:15 26° SSW 05:02:31 35° SSE 05:05:38 10° E visible
30 Oct -1.5 04:14:50 22° ESE 04:14:50 22° ESE 04:16:49 10° E visible
30 Oct -3.7 05:47:44 15° WSW 05:50:25 79° SSE 05:53:47 10° E visible
31 Oct -3.5 05:01:14 52° SSW 05:01:47 63° SSE 05:05:07 10° E visible
